Zurück zum Katalog

COSMOS 2251 DEB

AktivLEO
NORAD 34303·DEBRIS·🇷🇺 Russia

Gestartet Jun 16, 1993 von Plesetsk Cosmodrome

Loading…

Nächste Überflüge (nächste 24 Stunden)

TLE

AktuellSource: Space-Track

Epoche: Sep 14, 2026, 01:27 UTC

1 34303U 93036MZ  26257.06076742  .00003071  00000-0  60941-3 0  9992
2 34303  74.0027 124.8238 0133781 196.5769 315.1900 14.57094987919696

Verfolge COSMOS 2251 DEB in Echtzeit mit AllMySat

Download on the App Store